Waarnemingen

Advertentie
Mijn weer
Tain Range, Groot Brittannië (3062): temperatuur & dauwpunt: 26.03.2020 15:00:00 - 01.04.2020 15:00:00 (BST)Tain Range, Groot Brittannië (3062): temperatuur -20cm & temperatuur -100cm: 26.03.2020 15:00:00 - 01.04.2020 15:00:00 (BST)Tain Range, Groot Brittannië (3062): windsnelheid & windstoten: 26.03.2020 15:00:00 - 01.04.2020 15:00:00 (BST)Tain Range, Groot Brittannië (3062): windrichting: 26.03.2020 15:00:00 - 01.04.2020 15:00:00 (BST)Tain Range, Groot Brittannië (3062): luchtdruk: 26.03.2020 15:00:00 - 01.04.2020 15:00:00 (BST)Tain Range, Groot Brittannië (3062): zicht: 26.03.2020 15:00:00 - 01.04.2020 15:00:00 (BST)Tain Range, Groot Brittannië (3062): neerslag: 26.03.2020 15:00:00 - 01.04.2020 15:00:00 (BST)
Datum & Tijd tt [°C] td [°C] tt -20cm [°C] tt -100cm [°C] ff [km/u] ff [kn] fx [km/u] fx [kn] dd ppp [hPa] vv [km] rr [mm]
01.04.2020 15:00:00 - - - - - - - - - - - -
01.04.2020 14:00:00 9,3 6,6 - - 24 13 - - W 1015,6 28 0,2
01.04.2020 13:00:00 8,3 4,4 - - 22 12 54 29 W 1016,5 50 0,0
01.04.2020 12:00:00 8,3 3,9 - - 37 20 55 30 W 1016,5 35 0,0
01.04.2020 11:00:00 9,0 3,3 - - 29 16 50 27 W 1017,4 30 0,0
01.04.2020 10:00:00 7,4 2,4 6,0 5,9 21 11 - - ZZW 1018,0 45 0,0
01.04.2020 09:00:00 6,8 3,2 - - 28 15 - - WZW 1018,9 30 0,0
01.04.2020 08:00:00 6,2 2,7 - - 22 12 - - WZW 1019,8 40 0,0
01.04.2020 07:00:00 5,9 1,7 - - 18 10 - - W 1020,6 50 0,0
01.04.2020 06:00:00 5,3 2,6 - - 15 8 - - ZW 1021,3 30 0,0
01.04.2020 05:00:00 5,4 2,5 - - 16 9 - - WZW 1022,2 45 0,0
01.04.2020 04:00:00 5,4 2,1 - - 18 10 - - W 1023,1 50 0,0
01.04.2020 03:00:00 5,5 2,6 - - 11 6 - - WZW 1024,2 40 0,0
01.04.2020 02:00:00 5,6 3,0 - - 21 11 - - WZW 1025,2 25 0,0
01.04.2020 01:00:00 5,4 2,8 - - 11 6 - - WZW 1026,1 45 0,0
01.04.2020 00:00:00 5,5 3,0 - - 13 7 - - WZW 1027,1 45 0,0
31.03.2020 23:00:00 5,7 3,3 - - 16 9 - - W 1028,2 19 0,0
31.03.2020 22:00:00 6,2 3,5 - - 24 13 - - WNW 1028,8 26 0,2
31.03.2020 21:00:00 6,0 3,5 - - 11 6 - - WZW 1029,5 30 0,0
31.03.2020 20:00:00 6,6 3,6 - - 18 10 - - W 1029,7 28 0,0
31.03.2020 19:00:00 7,3 4,2 - - 21 11 - - W 1030,2 30 0,0
31.03.2020 18:00:00 6,9 4,0 - - 26 14 - - WNW 1030,8 13 0,0
31.03.2020 17:00:00 8,3 4,8 - - 22 12 - - WNW 1031,1 29 -
31.03.2020 16:00:00 10,0 4,1 - - 29 16 - - WNW 1031,6 35 0,0
31.03.2020 15:00:00 8,5 3,8 - - 28 15 46 25 WNW 1032,3 30 0,0
31.03.2020 14:00:00 8,9 3,2 - - 29 16 - - WNW 1032,5 22 0,0
31.03.2020 13:00:00 8,6 4,0 - - 31 17 - - WNW 1033,1 45 0,0
31.03.2020 12:00:00 8,5 5,4 - - 21 11 - - W 1033,6 45 0,0
31.03.2020 11:00:00 7,9 3,4 - - 22 12 - - WNW 1034,2 40 0,0
31.03.2020 10:00:00 6,8 3,7 5,9 5,7 18 10 - - WNW 1034,6 19 0,0
31.03.2020 09:00:00 6,4 3,9 - - 21 11 - - W 1035,2 30 0,0
31.03.2020 08:00:00 5,1 3,8 - - 15 8 - - WZW 1035,6 45 0,0
31.03.2020 07:00:00 4,2 2,7 - - 13 7 - - W 1035,5 50 0,0
31.03.2020 06:00:00 4,8 3,8 - - 15 8 - - W 1035,7 50 0,0
31.03.2020 05:00:00 5,1 4,4 - - 11 6 - - W 1036,0 8 0,0
31.03.2020 04:00:00 4,5 3,3 - - 11 6 - - WZW 1036,2 50 0,2
31.03.2020 03:00:00 3,1 1,6 - - 9 5 - - WZW 1036,6 35 0,0
31.03.2020 02:00:00 4,0 2,9 - - 9 5 - - WZW 1037,1 40 0,0
31.03.2020 01:00:00 3,6 2,7 - - 9 5 - - WZW 1037,4 27 0,0
31.03.2020 00:00:00 4,7 3,1 - - 15 8 - - W 1037,7 23 0,0
30.03.2020 23:00:00 4,3 2,6 - - 9 5 - - W 1038,2 27 0,0
30.03.2020 22:00:00 4,1 2,5 - - 13 7 - - WNW 1038,5 20 0,0
30.03.2020 21:00:00 6,0 4,2 - - 18 10 - - NW 1038,3 17 0,0
30.03.2020 20:00:00 6,3 3,6 - - 11 6 - - NW 1038,1 26 0,0
30.03.2020 19:00:00 6,8 4,4 - - 13 7 - - NNW 1038,3 20 0,0
30.03.2020 18:00:00 7,7 4,1 - - 24 13 - - NW 1038,4 12 0,0
30.03.2020 17:00:00 8,2 4,0 - - 22 12 - - NW 1038,4 45 0,0
30.03.2020 16:00:00 9,2 4,8 - - 24 13 - - NW 1038,6 40 0,0
30.03.2020 15:00:00 8,5 4,8 - - 26 14 - - N 1038,9 13 0,2
30.03.2020 14:00:00 8,1 5,1 - - 22 12 - - NW 1039,0 8 0,0
30.03.2020 13:00:00 8,0 5,7 - - 18 10 - - NW 1039,2 50 0,0
30.03.2020 12:00:00 9,4 4,3 - - 31 17 48 26 NNW 1039,4 45 0,0
30.03.2020 11:00:00 9,1 4,8 - - 29 16 - - NW 1039,6 30 0,0
30.03.2020 10:00:00 7,4 4,0 5,7 5,7 29 16 48 26 NW 1040,1 40 0,0
30.03.2020 09:00:00 6,6 3,7 - - 24 13 - - WNW 1040,1 50 0,0
30.03.2020 08:00:00 6,6 4,0 - - 21 11 - - WNW 1040,5 50 0,0
30.03.2020 07:00:00 5,9 3,5 - - 21 11 - - WNW 1040,5 45 0,0
30.03.2020 06:00:00 6,2 3,9 - - 9 5 - - W 1040,7 24 0,0
30.03.2020 05:00:00 6,0 3,7 - - 11 6 - - WNW 1040,6 17 0,0
30.03.2020 04:00:00 6,3 3,7 - - 16 9 - - WNW 1040,9 25 0,0
30.03.2020 03:00:00 6,6 3,6 - - 24 13 - - WNW 1041,4 19 0,0
30.03.2020 02:00:00 6,2 3,5 - - 28 15 - - WNW 1041,5 30 0,0
30.03.2020 01:00:00 6,7 3,5 - - 28 15 46 25 NW 1042,1 13 0,0
30.03.2020 00:00:00 6,7 3,7 - - 24 13 - - WNW 1042,7 22 0,0
29.03.2020 23:00:00 6,6 3,7 - - 26 14 - - WNW 1043,0 23 0,0
29.03.2020 22:00:00 6,4 3,5 - - 22 12 - - NW 1043,5 30 0,0
29.03.2020 21:00:00 6,2 3,5 - - 21 11 - - WNW 1043,8 30 0,0
29.03.2020 20:00:00 6,5 3,3 - - 24 13 - - NW 1044,1 30 0,0
29.03.2020 19:00:00 6,2 4,1 - - 22 12 - - WNW 1044,3 13 0,0
29.03.2020 18:00:00 6,6 3,3 - - 28 15 - - WNW 1044,6 35 0,0
29.03.2020 17:00:00 7,0 3,2 - - 26 14 - - WNW 1045,2 25 0,0
29.03.2020 16:00:00 7,0 2,4 - - 24 13 - - WNW 1045,9 35 0,0
29.03.2020 15:00:00 7,3 2,0 - - 26 14 - - WNW 1046,3 40 0,0
29.03.2020 14:00:00 7,4 0,7 - - 31 17 - - WNW 1046,9 35 0,0
29.03.2020 13:00:00 7,1 -1,4 - - 24 13 - - WNW 1047,4 45 0,0
29.03.2020 12:00:00 5,9 -2,1 - - 22 12 - - WNW 1048,0 50 0,0
29.03.2020 11:00:00 5,2 -2,4 - - 22 12 - - WNW 1048,6 40 0,0
29.03.2020 10:00:00 3,9 -3,3 5,7 5,9 21 11 - - WNW 1048,9 35 0,0
29.03.2020 09:00:00 3,0 -3,3 - - 18 10 - - WNW 1048,6 45 0,0
29.03.2020 08:00:00 1,9 -2,4 - - 9 5 - - W 1048,9 45 0,0
29.03.2020 07:00:00 1,8 -2,7 - - 11 6 - - WNW 1048,8 35 0,0
29.03.2020 06:00:00 1,9 -3,0 - - 13 7 - - WNW 1048,7 50 0,0
29.03.2020 05:00:00 2,0 -3,9 - - 13 7 - - NW 1049,3 50 0,0
29.03.2020 04:00:00 2,1 -4,3 - - 15 8 - - NNW 1049,3 50 0,0
29.03.2020 03:00:00 1,9 -3,6 - - 13 7 - - NNW 1049,5 50 0,0
29.03.2020 02:00:00 1,9 -3,0 - - 13 7 - - NNW 1049,3 40 0,0
29.03.2020 01:00:00 2,3 -3,5 - - 11 6 - - NNW 1049,0 40 0,0
29.03.2020 00:00:00 2,7 -4,1 - - 16 9 - - NNO 1048,8 21 0,0
28.03.2020 23:00:00 1,9 -3,7 - - 15 8 - - NNW 1048,3 35 0,0
28.03.2020 22:00:00 2,3 -3,9 - - 16 9 - - NNW 1047,9 28 0,0
28.03.2020 21:00:00 2,4 -4,4 - - 22 12 - - N 1047,5 40 0,0
28.03.2020 20:00:00 2,9 -4,6 - - 24 13 - - NNO 1046,8 35 0,0
28.03.2020 19:00:00 4,1 -5,4 - - 29 16 - - N 1045,8 50 0,0
28.03.2020 18:00:00 4,4 -2,6 - - 35 19 - - NNO 1044,9 22 0,0
28.03.2020 17:00:00 6,0 0,0 - - 26 14 52 28 NO 1044,6 23 0,0
28.03.2020 16:00:00 6,5 -1,2 - - 34 18 54 29 NO 1044,3 35 0,0
28.03.2020 15:00:00 5,9 -0,9 - - 37 20 48 26 NO 1043,6 40 0,0
28.03.2020 14:00:00 7,5 -2,0 - - 31 17 48 26 NNO 1043,3 35 0,0
28.03.2020 13:00:00 6,1 -1,5 - - 34 18 - - NNO 1043,0 35 0,0
28.03.2020 12:00:00 4,0 -0,1 - - 29 16 - - NNO 1042,4 30 0,0
28.03.2020 11:00:00 5,5 0,2 - - 29 16 - - NO 1041,4 24 0,0
28.03.2020 10:00:00 4,9 0,1 6,2 5,7 24 13 - - N 1040,8 45 0,0
28.03.2020 09:00:00 4,6 1,6 - - 18 10 - - NNW 1039,9 20 0,0
28.03.2020 08:00:00 4,0 1,9 - - 13 7 - - NW 1039,1 26 0,0
28.03.2020 07:00:00 3,5 1,6 - - 15 8 - - NW 1038,6 27 0,2
28.03.2020 06:00:00 3,4 1,2 - - 16 9 - - NW 1038,1 21 0,0
28.03.2020 05:00:00 3,2 0,5 - - 11 6 - - WNW 1037,7 22 0,0
28.03.2020 04:00:00 5,0 2,8 - - 13 7 - - WNW 1037,7 19 0,0
28.03.2020 03:00:00 5,3 3,7 - - 15 8 - - WNW 1037,2 35 0,0
28.03.2020 02:00:00 5,4 3,7 - - 15 8 - - NW 1036,8 35 0,0
28.03.2020 01:00:00 5,3 3,0 - - 21 11 - - NW 1036,4 35 0,0
28.03.2020 00:00:00 3,7 2,2 - - 18 10 - - NW 1035,6 40 0,0
27.03.2020 23:00:00 4,2 2,2 - - 18 10 - - WNW 1035,3 35 0,0
27.03.2020 22:00:00 3,8 1,8 - - 15 8 - - NW 1035,3 35 0,0
27.03.2020 21:00:00 1,9 -0,1 - - 8 4 - - NW 1034,7 30 0,0
27.03.2020 20:00:00 5,1 2,2 - - 4 2 - - N 1034,1 50 0,0
27.03.2020 19:00:00 7,3 2,2 - - 4 2 - - NNW 1033,4 50 0,0
27.03.2020 18:00:00 9,1 2,5 - - 5 3 - - ZZO 1032,9 45 0,0
27.03.2020 17:00:00 10,0 2,0 - - 5 3 - - ZZO 1032,7 35 0,0
27.03.2020 16:00:00 9,6 2,2 - - 5 3 - - NO 1032,9 45 0,0
27.03.2020 15:00:00 9,7 1,8 - - 13 7 - - ONO 1032,6 50 0,0
27.03.2020 14:00:00 9,8 0,9 - - 5 3 - - N 1032,6 35 0,0
27.03.2020 13:00:00 9,8 1,0 - - 9 5 - - O 1032,4 45 0,0
27.03.2020 12:00:00 9,4 1,1 - - 5 3 - - N 1032,4 30 0,0
27.03.2020 11:00:00 8,2 2,0 - - 9 5 - - NNW 1032,0 45 0,0
27.03.2020 10:00:00 6,3 2,6 6,2 5,7 16 9 - - WNW 1031,8 40 0,0
27.03.2020 09:00:00 4,3 2,5 - - 16 9 - - WNW 1031,2 21 0,0
27.03.2020 08:00:00 2,9 2,2 - - 11 6 - - NW 1030,5 40 0,0
27.03.2020 07:00:00 2,9 1,9 - - 13 7 - - WNW 1030,2 35 0,0
27.03.2020 06:00:00 3,1 1,7 - - 13 7 - - WNW 1029,8 45 0,0
27.03.2020 05:00:00 4,7 3,3 - - 16 9 - - WNW 1029,7 50 0,0
27.03.2020 04:00:00 4,8 3,5 - - 16 9 - - WNW 1029,4 45 0,0
27.03.2020 03:00:00 5,2 4,1 - - 11 6 - - NW 1029,2 30 0,0
27.03.2020 02:00:00 5,3 4,6 - - 9 5 - - NW 1028,9 40 0,0
27.03.2020 01:00:00 4,8 4,2 - - 9 5 - - N 1028,9 35 0,0
27.03.2020 00:00:00 4,7 4,2 - - 8 4 - - N 1029,1 23 0,0
26.03.2020 23:00:00 4,8 4,2 - - 9 5 - - NNW 1029,0 20 0,0
26.03.2020 22:00:00 5,1 4,1 - - 5 3 - - W 1028,9 21 0,0
26.03.2020 21:00:00 5,6 4,3 - - 9 5 - - ZZO 1028,9 35 0,0
26.03.2020 20:00:00 6,6 3,5 - - 16 9 - - ZZO 1028,5 50 0,0
26.03.2020 19:00:00 7,9 2,6 - - 13 7 - - ZZO 1028,1 50 0,0
26.03.2020 18:00:00 8,5 2,9 - - 15 8 - - ZZO 1027,9 45 0,0
26.03.2020 17:00:00 9,2 0,9 - - 15 8 - - ZO 1027,9 40 0,0
26.03.2020 16:00:00 10,1 1,0 - - 4 2 - - Z 1028,0 50 0,0
26.03.2020 15:00:00 - - - - - - - - - - - -

tt = temperatuur
td = dauwpunt
tt -20cm = temperatuur -20cm
tt -100cm = temperatuur -100cm
ff = windsnelheid
fx = windstoten
dd = windrichting
ppp = luchtdruk
vv = zicht
rr = neerslag

Weerstations in de omgeving